This is the latest recevied weather packets stored in our database for station/object KE5AKC. If no packets are shown the sender has not sent any weather packets the latest 10 day(s).
| Time | Temp. | Humidity | Pressure | Rain* | Wind** | Luminosity | Snow |
|---|---|---|---|---|---|---|---|
| 1777661233 | 16.11° C | 97% | 1009.3 hPa | 7.87 mm | - | 12 W/m² | - |
| 1777660929 | 16.11° C | 97% | 1009 hPa | 6.86 mm | - | 23 W/m² | - |
| 1777660625 | 16.11° C | 97% | 1008.3 hPa | 5.84 mm | - | 20 W/m² | - |
| 1777660322 | 16.11° C | 97% | 1008.6 hPa | 4.83 mm | - | 19 W/m² | - |
| 1777660019 | 16.11° C | 97% | 1009 hPa | 4.57 mm | - | 20 W/m² | - |
| 1777659715 | 16.11° C | 97% | 1009.3 hPa | 4.32 mm | - | 26 W/m² | - |
| 1777659413 | 16.11° C | 97% | 1009.3 hPa | 3.81 mm | - | 25 W/m² | - |
| 1777659110 | 16.11° C | 97% | 1010 hPa | 1.78 mm | - | 37 W/m² | - |
| 1777658808 | 16.11° C | 97% | 1010.7 hPa | 0.51 mm | - | 17 W/m² | - |
| 1777658503 | 16.11° C | 97% | 1010 hPa | 0.25 mm | - | 15 W/m² | - |
| 1777658201 | 16.11° C | 97% | 1010 hPa | 2.54 mm | - | 31 W/m² | - |
| 1777657898 | 16.11° C | 97% | 1010 hPa | 2.29 mm | - | 57 W/m² | - |
| 1777657594 | 16.11° C | 97% | 1010.7 hPa | 2.03 mm | - | 64 W/m² | - |
| 1777657292 | 16.11° C | 97% | 1010.7 hPa | 0.76 mm | - | 73 W/m² | - |
| 1777656989 | 16.11° C | 97% | 1010.3 hPa | 0.51 mm | - | 93 W/m² | - |
| 1777656685 | 16.67° C | 97% | 1010.3 hPa | 0.51 mm | - | 97 W/m² | - |
| 1777656375 | 16.67° C | 97% | 1010.7 hPa | 0.25 mm | - | 86 W/m² | - |
| 1777656070 | 16.11° C | 97% | 1011 hPa | 0.25 mm | - | 112 W/m² | - |
| 1777655767 | 16.11° C | 97% | 1010.7 hPa | 0.25 mm | - | 173 W/m² | - |
| 1777655464 | 16.67° C | 97% | 1010.7 hPa | 0.25 mm | - | 277 W/m² | - |
| 1777655161 | 16.11° C | 97% | 1010.3 hPa | 0.25 mm | - | 157 W/m² | - |
| 1777654858 | 16.11° C | 97% | 1011.3 hPa | 0 mm | - | 85 W/m² | - |
| 1777654555 | 16.11° C | 97% | 1011.7 hPa | 5.33 mm | - | 49 W/m² | - |
| 1777654253 | 16.11° C | 97% | 1011.7 hPa | 5.08 mm | - | 50 W/m² | - |
| 1777653950 | 16.11° C | 96% | 1011.3 hPa | 4.83 mm | - | 58 W/m² | - |
* Rain latest hour (hover to see other rain measurements)
** Current wind speed in m/s (hover to see current wind gust speed)